YUZGU 9 (RS3S) (53308 NORAD) Tracking and Keplerian Element Data

This shows tracking and keplerian element data for the satellite.

Feedback or suggestion? Click here.




ElementValue
Catalog53308
NameYUZGU 9 (RS3S)
Epoch Orbit2766
Epoch Day14.24003409
Epoch Year2023
RAAN355.6185
Inclination51.6305
Eccentricity0.0005786
Argument of Perigee82.2364
Mean Anonmoly277.9297
Mean Motion15.8831029
Decay Rate0.00656772
L11 53308U 98067TT 23014.24003409 .00656772 00000+0 21601-2 0 9995
L22 53308 51.6305 355.6185 0005786 82.2364 277.9297 15.88310290 27666



Live tracking and technical data element details for YUZGU 9 (RS3S) (NORAD 53308). YUZGU 9 (RS3S) can be tracked NOW for your location showing map with azimuth and elevation plus other details from your city location.







IsCatalogInMostPopularTable: catalog: 53308, numindb: 54
Update: records affected: 1



GetName: 53308 YUZGU 9 (RS3S)

Hit Count: updated at: Sat, 25 Jan 2025 00:12:19 GMT